AGROMETEOROLOŠKI PORTAL

Vinorodna pokrajina

Temelj dobrega kmetovanja.

Pregled podatkov za lokacijo KRŠKO - NEK ARSO, meteorološka postaja 116

Pregled senzorjev na lokaciji

ID Ime Zadnja
vrednost
Datum in čas
meritve
(lokalni čas)
Tip
senzorja
6031 Zračni tlak (hPa) 982 hPa 23.2.2024 23:30 ARSO
2599 Sončno sevanje (W/m2) 0 W/m2 23.2.2024 23:30 ARSO
2605 Padavine (mm) 0,1 mm 23.2.2024 23:30 ARSO
2613 Relativna zračna vlaga (2 m) (% RH) 81 % RH 23.2.2024 23:30 ARSO
2612 Temperatura (2 m) (°C) 11,9 °C 23.2.2024 23:30 ARSO
2617 Smer vetra (2 m) (°) 267 ° 23.2.2024 23:30 ARSO
2618 Hitrost vetra (2 m) (km/h) 13 km/h 23.2.2024 23:30 ARSO

Pregled podatkov zadnjih 24 ur

Zap.
št.
Datum in čas
(lokalni čas)
KRŠKO - NEK ARSO
Zračni
tlak
Sončno
sevanje
Padavine Relativna
zračna
vlaga
(2
m)
Temperatura
(2
m)
Smer
vetra
(2
m)
Hitrost
vetra
(2
m)
1 23.2.2024 23:30 981,6 0 0,1 81 11,9 267 13
2 23.2.2024 23:00 981,6 0 0,1 81 12,1 223 14
3 23.2.2024 22:30 980,8 0 0,1 60 14,4 215 19
4 23.2.2024 22:00 980,4 0 0 56 14,5 164 10
5 23.2.2024 21:30 980,4 0 0 56 14,3 137 9
6 23.2.2024 21:00 980,4 0 0 56 14,4 133 12
7 23.2.2024 20:30 980,3 0 0 57 14,3 138 14
8 23.2.2024 20:00 980,2 0 0 59 13,9 139 10
9 23.2.2024 19:30 980,1 0 0 59 14,1 144 9
10 23.2.2024 19:00 980,2 0 0 59 14,2 125 12
11 23.2.2024 18:30 980,5 0 0 58 14,2 126 10
12 23.2.2024 18:00 980,5 0 0 58 14,2 140 10
13 23.2.2024 17:30 980,7 3 0 56 14,4 147 12
14 23.2.2024 17:00 980,8 4 0 58 14,5 121 9
15 23.2.2024 16:30 981,1 13 0 56 14,8 160 6
16 23.2.2024 16:00 981,4 20 0 55 14,9 176 11
17 23.2.2024 15:30 981,5 47 0 54 15,1 168 10
18 23.2.2024 15:00 981,8 97 0 54 15,1 190 14
19 23.2.2024 14:30 982 171 0 56 14,8 190 10
20 23.2.2024 14:00 982,3 92 0 56 14,5 157 9
21 23.2.2024 13:30 982,8 164 0 57 14,1 140 10
22 23.2.2024 13:00 983,2 82 0 58 13,6 141 12
23 23.2.2024 12:30 983,8 38 0 60 13,1 170 9
24 23.2.2024 12:00 984 41 0 63 12,8 194 9
25 23.2.2024 11:30 984,3 97 0 65 12,3 176 8
26 23.2.2024 11:00 984,6 115 0 71 11,4 95 8
27 23.2.2024 10:30 984,7 107 0 73 11 87 7
28 23.2.2024 10:00 984,9 78 0 72 11 96 9
29 23.2.2024 09:30 985,2 92 0 72 10,9 103 6
30 23.2.2024 09:00 985,4 64 0 72 10,3 63 4
31 23.2.2024 08:30 985,5 55 0 74 9,9 11 3
32 23.2.2024 08:00 985,6 22 0 73 9,6 172 4
33 23.2.2024 07:30 985,7 6 0 71 9,9 156 6
34 23.2.2024 07:00 985,5 0 0 70 10 150 7
35 23.2.2024 06:30 985,6 0 0 70 10,1 223 7
36 23.2.2024 06:00 985,6 0 0 69 10,2 247 13
37 23.2.2024 05:30 985,5 0 0 70 9,9 240 15
38 23.2.2024 05:00 985,5 0 0 69 10 232 15
39 23.2.2024 04:30 985,7 0 0 67 10,4 233 11
40 23.2.2024 04:00 986 0 0 65 10,7 248 10
41 23.2.2024 03:30 986 0 0 65 10,8 249 11
42 23.2.2024 03:00 986 0 0 66 10,8 240 14
43 23.2.2024 02:30 986 0 0 66 10,9 241 14
44 23.2.2024 02:00 986 0 0 65 11,2 253 18
45 23.2.2024 01:30 985,8 0 0 66 11 240 22
46 23.2.2024 01:00 986,1 0 0 67 11,3 231 23
47 23.2.2024 00:30 986,2 0 0 65 11,9 239 20
48 23.2.2024 00:00 986,3 0 0 67 12,1 245 21